This is the latest recevied weather packets stored in our database for station/object KB9ZI. If no packets are shown the sender has not sent any weather packets the latest 1 day(s).
| Time | Temp. | Humidity | Pressure | Rain* | Wind** | Luminosity | Snow |
|---|---|---|---|---|---|---|---|
| 1778093943 | 6.67° C | 59% | 1016.2 hPa | 0 mm | - | - | - |
| 1778093335 | 6.67° C | 60% | 1016.3 hPa | 0 mm | - | - | - |
| 1778093063 | 6.11° C | 58% | 1016.4 hPa | 0 mm | - | - | - |
| 1778092973 | 6.67° C | 56% | 1016.4 hPa | 0 mm | - | - | - |
| 1778092384 | 6.67° C | 60% | 1016.4 hPa | 0 mm | - | - | - |
| 1778092355 | 6.67° C | 58% | 1016.4 hPa | 0 mm | - | - | - |
| 1778091270 | 6.11° C | 60% | 1016.4 hPa | 0 mm | - | - | - |
| 1778091152 | 6.11° C | 59% | 1016.5 hPa | 0 mm | - | - | - |
| 1778090790 | 6.11° C | 59% | 1016.5 hPa | 0 mm | - | - | - |
| 1778090671 | 6.11° C | 59% | 1016.5 hPa | 0 mm | - | - | - |
| 1778090311 | 6.11° C | 57% | 1016.5 hPa | 0 mm | - | - | - |
| 1778089689 | 6.11° C | 59% | 1016.5 hPa | 0 mm | - | - | - |
| 1778089518 | 5.56° C | 61% | 1016.5 hPa | 0 mm | - | - | - |
| 1778089089 | 5.56° C | 61% | 1016.6 hPa | 0 mm | - | - | - |
| 1778088969 | 5.56° C | 60% | 1016.6 hPa | 0 mm | - | - | - |
| 1778088258 | 5° C | 61% | 1016.8 hPa | 0 mm | - | - | - |
| 1778088129 | 5° C | 61% | 1016.7 hPa | 0 mm | - | - | - |
| 1778087168 | 5° C | 60% | 1016.8 hPa | 0 mm | - | - | - |
| 1778086454 | 5° C | 62% | 1016.9 hPa | 0 mm | - | - | - |
| 1778086325 | 5° C | 61% | 1016.8 hPa | 0 mm | - | - | - |
| 1778086209 | 5° C | 60% | 1016.9 hPa | 0 mm | - | - | - |
| 1778086089 | 5° C | 60% | 1016.9 hPa | 0 mm | - | - | - |
| 1778085788 | 5° C | 61% | 1016.9 hPa | 0 mm | - | - | - |
| 1778085406 | 5° C | 62% | 1016.9 hPa | 0 mm | - | - | - |
| 1778085012 | 5° C | 60% | 1016.8 hPa | 0 mm | - | - | - |
* Rain latest hour (hover to see other rain measurements)
** Current wind speed in m/s (hover to see current wind gust speed)